EW2027 Weather Reports


Display with metric or nautical units.
time (UTC)temp
F
wind
direction
speed
MPH
gust
MPH
rain 1hr
in
rain 24hr
in
rain mn
in
humidity
%
barometer
mb
20260902210703 100 171 5.0 12.0 0.00 0.00 0.00 40 1014.5
20260902210203 99 161 5.0 15.0 0.00 0.00 0.00 40 1014.5
20260902203203 99 149 6.0 13.0 0.00 0.00 0.00 40 1014.9
20260902200702 99 132 7.0 15.0 0.00 0.00 0.00 41 1015.2
20260902200203 99 170 3.0 20.0 0.00 0.00 0.00 43 1015.4
20260902193703 98 170 4.0 9.0 0.00 0.00 0.00 44 1015.8
20260902193203 98 150 6.0 12.0 0.00 0.00 0.00 45 1015.8
20260902190703 98 141 5.0 8.0 0.00 0.00 0.00 47 1016.1
20260902183703 97 147 6.0 14.0 0.00 0.00 0.00 47 1016.6
20260902180703 96 162 3.0 7.0 0.00 0.00 0.00 48 1017.1
20260902173702 96 180 3.0 12.0 0.00 0.00 0.00 52 1017.4
20260902173203 95 158 5.0 14.0 0.00 0.00 0.00 50 1017.5
20260902170704 95 160 4.0 9.0 0.00 0.00 0.00 53 1017.9
20260902170202 95 172 4.0 13.0 0.00 0.00 0.00 51 1017.9
20260902163703 94 146 4.0 9.0 0.00 0.00 0.00 54 1018.1
20260902163203 93 185 5.0 16.0 0.00 0.00 0.00 54 1018.2
20260902160203 92 174 5.0 12.0 0.00 0.00 0.00 55 1018.2
20260902153703 91 209 3.0 8.0 0.00 0.00 0.00 57 1018.5
20260902153203 91 205 4.0 13.0 0.00 0.00 0.00 57 1018.5
20260902150703 89 202 3.0 9.0 0.00 0.00 0.00 60 1018.5
20260902150203 88 180 5.0 13.0 0.00 0.00 0.00 61 1018.6
20260902143703 87 192 4.0 9.0 0.00 0.00 0.00 62 1018.5
20260902143203 87 210 3.0 10.0 0.00 0.00 0.00 64 1018.5
20260902140703 85 181 3.0 8.0 0.00 0.00 0.00 66 1018.5
20260902133703 82 155 5.0 10.0 0.00 0.00 0.00 69 1018.4
20260902133203 82 173 3.0 8.0 0.00 0.00 0.00 70 1018.5
20260902130703 80 161 3.0 6.0 0.00 0.00 0.00 72 1018.5
20260902130203 79 167 2.0 6.0 0.00 0.00 0.00 72 1018.4
20260902123703 78 163 2.0 5.0 0.00 0.00 0.00 72 1018.2
20260902123203 78 161 2.0 6.0 0.00 0.00 0.00 72 1018.2
20260902120204 79 152 2.0 3.0 0.00 0.00 0.00 71 1017.7
20260902113703 79 151 1.0 3.0 0.00 0.00 0.00 70 1017.6
20260902113203 79 151 2.0 5.0 0.00 0.00 0.00 70 1017.5
20260902110703 79 151 1.0 3.0 0.00 0.00 0.00 70 1017.4
20260902103704 78 151 1.0 2.0 0.00 0.00 0.00 71 1017.5
20260902103203 79 152 1.0 5.0 0.00 0.00 0.00 70 1017.5
20260902100703 79 126 2.0 3.0 0.00 0.00 0.00 70 1017.3
20260902100203 78 123 1.0 2.0 0.00 0.00 0.00 71 1017.3
20260902093704 78 124 0.0 1.0 0.00 0.00 0.00 70 1017.3
20260902093203 78 124 0.0 2.0 0.00 0.00 0.00 70 1017.3
20260902090703 79 124 1.0 2.0 0.00 0.00 0.00 69 1017.1
20260902090204 79 124 0.0 2.0 0.00 0.00 0.00 68 1017.1
20260902083703 79 124 1.0 2.0 0.00 0.00 0.00 67 1016.9
20260902083203 79 124 0.0 3.0 0.00 0.00 0.00 67 1016.9
20260902080703 80 172 1.0 2.0 0.00 0.00 0.00 65 1016.9
20260902080203 80 172 1.0 3.0 0.00 0.00 0.00 65 1016.9
20260902073704 81 172 1.0 2.0 0.00 0.00 0.00 64 1016.9
20260902073204 81 172 0.0 2.0 0.00 0.00 0.00 64 1016.9
20260902070703 81 172 1.0 2.0 0.00 0.00 0.00 64 1016.8
20260902070203 81 172 0.0 2.0 0.00 0.00 0.00 64 1016.8
20260902063703 82 172 0.0 0.0 0.00 0.00 0.00 62 1016.8
20260902063203 82 172 0.0 3.0 0.00 0.00 0.00 62 1016.8
20260902060203 82 168 2.0 3.0 0.00 0.00 0.00 61 1016.7
20260902053703 82 161 0.0 2.0 0.00 0.00 0.00 60 1016.7
20260902053203 82 161 0.0 2.0 0.00 0.00 0.00 60 1016.7
20260902050704 83 161 0.0 2.0 0.00 0.00 0.00 58 1016.8
20260902050203 84 161 0.0 5.0 0.00 0.00 0.00 57 1016.7
20260902043703 85 164 2.0 5.0 0.00 0.00 0.00 56 1016.7
20260902043203 85 163 2.0 6.0 0.00 0.00 0.00 55 1016.6
20260902040703 85 178 2.0 3.0 0.00 0.00 0.00 54 1016.5
20260902040203 85 155 2.0 5.0 0.00 0.00 0.00 54 1016.5
20260902033703 86 148 0.0 1.0 0.00 0.00 0.00 52 1016.6
20260902033203 86 148 0.0 3.0 0.00 0.00 0.00 52 1016.5
20260902030203 88 147 1.0 3.0 0.00 0.00 0.00 49 1016.1
20260902023203 89 145 2.0 5.0 0.00 0.00 0.00 47 1015.6
20260902020703 89 136 1.0 3.0 0.00 0.00 0.00 47 1015.3
20260902013703 91 136 1.0 3.0 0.00 0.00 0.00 44 1015.0
20260902013203 91 136 2.0 3.0 0.00 0.00 0.00 44 1015.0
20260902010703 93 143 2.0 3.0 0.00 0.00 0.00 42 1014.9
20260902003703 95 139 2.0 3.0 0.00 0.00 0.00 40 1014.9
20260902003202 95 138 2.0 6.0 0.00 0.00 0.00 40 1014.9
20260902000703 97 142 1.0 3.0 0.00 0.00 0.00 38 1015.0
20260902000205 97 140 2.0 8.0 0.00 0.00 0.00 38 1015.0
20260901233704 98 133 2.0 5.0 0.00 0.00 0.00 37 1015.1
20260901233203 98 162 3.0 12.0 0.00 0.00 0.00 36 1015.1
20260901230203 99 105 5.0 12.0 0.00 0.00 0.00 35 1015.3
20260901223703 99 176 3.0 9.0 0.00 0.00 0.00 35 1015.2
20260901223203 99 152 3.0 9.0 0.00 0.00 0.00 35 1015.2
20260901220203 99 165 3.0 10.0 0.00 0.00 0.00 35 1015.3
20260901213703 100 217 3.0 10.0 0.00 0.00 0.00 33 1015.5
20260901213203 100 179 3.0 12.0 0.00 0.00 0.00 33 1015.4